This demonstration page uses our WeatherBlox Daily Observations layout. Learn more.

Left ArrowRight Arrow

41.86663, -103.66717

Hourly Observations for March 31, 2018

Temp ( °F °C ) Dew Point ( °F °C ) Humidity (%) Winds ( mph kmh ) Pressure ( in mb ) Visibility ( mi km ) Precip ( " mm )
12:53 am 00:53 Mostly Clear 41 5 31 -0.6 67 67 NNW 10 17 29.96 1015 10 16 N/A
1:53 am 01:53 Clear 36 2.2 29 -1.7 76 76 WSW 5 7 30.01 1016 10 16 N/A
2:27 am 02:27 Mostly Clear 37 2.8 28 -2.2 70 70 WNW 13 20 30.12 1020 10 16 N/A
2:53 am 02:53 Clear 36 2.2 28 -2.2 73 73 WNW 9 15 30.03 1017 10 16 N/A
3:53 am 03:53 Mostly Clear 36 2.2 29 -1.7 76 76 W 13 20 30.03 1017 10 16 N/A
4:53 am 04:53 Cloudy 35 1.7 30 -1.1 82 82 W 8 13 30.04 1017 10 16 N/A
5:36 am 05:36 Cloudy 36 2 30 -1 81 81 NNW 6 9 30.18 1022 10 16 N/A
5:53 am 05:53 Cloudy 35 1.7 29 -1.7 78 78 N 15 24 30.08 1019 10 16 N/A
6:25 am 06:25 Mostly Cloudy 33 0.6 25 -3.9 72 72 N 15 24 30.24 1024 10 16 N/A
6:53 am 06:53 Mostly Cloudy 31 -0.6 24 -4.4 76 76 N 8 13 30.14 1021 10 16 N/A
7:08 am 07:08 Cloudy 30 -1 25 -4 80 80 ENE 9 15 30.27 1025 10 16 N/A
7:53 am 07:53 Cloudy 29 -1.7 24 -4.4 82 82 NE 12 19 30.19 1022 10 16 N/A
8:11 am 08:11 Cloudy 29 -1.7 24 -4.4 82 82 NE 13 20 30.30 1026 10 16 N/A
8:53 am 08:53 Cloudy 28 -2.2 23 -5 81 81 NE 16 26 30.21 1023 10 16 N/A
9:28 am 09:28 Cloudy 27 -3 21 -6 80 80 NE 16 26 30.36 1028 10 16 N/A
9:33 am 09:33 Cloudy 27 -2.8 22 -5.6 81 81 NE 16 26 30.36 1028 10 16 N/A
9:44 am 09:44 Cloudy 27 -3 21 -6 80 80 NE 17 28 30.36 1028 10 16 N/A
9:53 am 09:53 Cloudy 27 -2.8 22 -5.6 81 81 NE 16 26 30.24 1024 10 16 N/A
10:36 am 10:36 Cloudy 28 -2.2 21 -6.1 75 75 ENE 14 22 30.39 1029 10 16 N/A
10:53 am 10:53 Cloudy 26 -3.3 21 -6.1 81 81 ENE 12 19 30.27 1025 10 16 N/A
11:00 am 11:00 Cloudy 27 -3 21 -6 80 80 ENE 13 20 30.39 1029 9 14 N/A
11:39 am 11:39 Cloudy 28 -2.2 21 -6.1 75 75 ENE 12 19 30.39 1029 10 16 N/A
11:53 am 11:53 Cloudy 27 -2.8 20 -6.7 75 75 ENE 10 17 30.30 1026 10 16 N/A
12:44 pm 12:44 Cloudy 27 -3 19 -7 74 74 ENE 10 17 30.39 1029 10 16 N/A
12:53 pm 12:53 Cloudy 27 -2.8 20 -6.7 75 75 E 12 19 30.29 1026 10 16 N/A
1:53 pm 13:53 Cloudy 27 -2.8 19 -7.2 72 72 ENE 10 17 30.31 1027 10 16 N/A
2:53 pm 14:53 Cloudy 27 -2.8 17 -8.3 66 66 E 8 13 30.30 1026 10 16 N/A
3:53 pm 15:53 Cloudy 27 -2.8 17 -8.3 66 66 E 9 15 30.30 1026 10 16 N/A
4:53 pm 16:53 Cloudy 27 -2.8 17 -8.3 66 66 ENE 7 11 30.31 1026 10 16 N/A
5:53 pm 17:53 Cloudy 26 -3.3 16 -8.9 66 66 ENE 8 13 30.31 1026 10 16 N/A
6:53 pm 18:53 Cloudy 25 -3.9 16 -8.9 69 69 E 9 15 30.32 1027 8 13 N/A
7:22 pm 19:22 Cloudy with Light Snow 25 -4 18 -8 74 74 E 10 17 30.42 1030 2 3 N/A
7:53 pm 19:53 Cloudy with Light Snow 23 -5 19 -7.2 85 85 E 9 15 30.35 1028 1 2 0.01 0.25
8:06 pm 20:06 Mostly Cloudy with Light Snow 21 -6 19 -7 93 93 E 8 13 30.45 1031 1 1 N/A
8:14 pm 20:14 Cloudy with Light Snow 22 -5.6 19 -7.2 89 89 undefined N/A 30.45 1031 1 2 0.01 0.25
8:53 pm 20:53 Cloudy with Light Snow 22 -5.6 19 -7.2 89 89 E 9 15 30.39 1029 1 2 0.04 1.02
9:32 pm 21:32 Cloudy with Light Snow 21 -6 19 -7 93 93 ESE 9 15 30.48 1032 2 3 N/A
9:43 pm 21:43 Cloudy with Light Snow 21 -6.1 19 -7.2 92 92 ESE 10 17 30.48 1032 4 6 0.01 0.25
9:53 pm 21:53 Cloudy with Light Snow 21 -6.1 19 -7.2 92 92 ESE 10 17 30.40 1029 4 6 0.01 0.25
10:29 pm 22:29 Cloudy with Light Snow 21 -6.1 19 -7.2 92 92 ESE 9 15 30.48 1032 2 3 0.01 0.25
10:35 pm 22:35 Cloudy with Light Snow 21 -6.1 18 -7.8 88 88 ESE 9 15 30.48 1032 2 3 0.01 0.25
10:44 pm 22:44 Cloudy with Light Snow 21 -6 19 -7 93 93 ESE 8 13 30.48 1032 2 3 N/A
10:53 pm 22:53 Cloudy with Light Snow 21 -6.1 19 -7.2 92 92 ESE 9 15 30.39 1029 3 5 0.02 0.51
11:53 pm 23:53 Cloudy with Light Snow 21 -6.1 19 -7.2 92 92 ESE 9 15 30.36 1028 4 6 N/A

Powered by AerisWeather